CW3363 Weather Reports


time (UTC)temp
F
wind
direction
speed
knots
gust
knots
rain 1hr
in
rain 24hr
in
rain mn
in
humidity
%
barometer
mb
20260506012328 80 151 5.2 12.2 0.00 0.00 0.00 83 1007.5
20260506011837 80 140 6.1 12.2 0.00 0.00 0.00 82 1007.4
20260506011341 80 177 4.3 8.7 0.00 0.00 0.00 82 1007.4
20260506010825 80 183 3.5 9.6 0.00 0.00 0.00 82 1007.4
20260506010331 80 177 6.1 11.3 0.00 0.00 0.00 82 1007.2
20260506005854 80 134 4.3 11.3 0.00 0.00 0.00 81 1007.2
20260506005339 80 175 2.6 9.6 0.00 0.00 0.00 81 1007.2
20260506004822 80 168 4.3 9.6 0.00 0.00 0.00 81 1007.1
20260506004327 81 154 4.3 9.6 0.00 0.00 0.00 81 1007.1
20260506003831 81 189 4.3 9.6 0.00 0.00 0.00 80 1007.1
20260506003333 81 146 4.3 10.4 0.00 0.00 0.00 80 1007.1
20260506002837 81 149 5.2 10.4 0.00 0.00 0.00 80 1007.1
20260506002321 81 142 2.6 8.7 0.00 0.00 0.00 80 1007.1
20260506001829 81 183 4.3 12.2 0.00 0.00 0.00 80 1007.0
20260506001337 81 182 7.0 12.2 0.00 0.00 0.00 79 1007.0
20260506000829 82 200 6.1 10.4 0.00 0.00 0.00 79 1007.0
20260506000337 82 186 5.2 10.4 0.00 0.00 0.00 78 1007.0
20260505235900 82 195 4.3 13.9 0.00 0.00 0.00 78 1007.0
20260505235343 82 179 5.2 13.9 0.00 0.00 0.00 78 1007.0
20260505234829 82 168 5.2 10.4 0.00 0.00 0.00 78 1007.0
20260505234334 82 159 6.1 16.5 0.00 0.00 0.00 78 1007.0
20260505233839 82 164 7.0 16.5 0.00 0.00 0.00 77 1007.0
20260505233323 82 138 6.1 10.4 0.00 0.00 0.00 78 1007.0
20260505232827 82 179 3.5 10.4 0.00 0.00 0.00 78 1007.0
20260505232331 82 198 5.2 9.6 0.00 0.00 0.00 78 1007.0
20260505231836 82 210 3.5 10.4 0.00 0.00 0.00 78 1007.0
20260505231325 82 175 5.2 11.3 0.00 0.00 0.00 77 1007.0
20260505230833 82 195 6.1 11.3 0.00 0.00 0.00 77 1007.0
20260505230337 83 200 6.1 13.9 0.00 0.00 0.00 77 1007.1
20260505225840 83 189 7.0 13.9 0.00 0.00 0.00 77 1007.1
20260505225324 83 138 2.6 9.6 0.00 0.00 0.00 77 1007.1
20260505224828 83 180 5.2 10.4 0.00 0.00 0.00 77 1007.0
20260505224333 83 255 4.3 13.0 0.00 0.00 0.00 77 1007.0
20260505223838 83 149 5.2 14.8 0.00 0.00 0.00 77 1007.0
20260505223325 83 160 5.2 14.8 0.00 0.00 0.00 77 1007.1
20260505222832 83 144 4.3 14.8 0.00 0.00 0.00 77 1007.1
20260505222335 83 231 4.3 14.8 0.00 0.00 0.00 76 1007.1
20260505221840 84 132 5.2 10.4 0.00 0.00 0.00 76 1007.1
20260505221323 83 158 6.1 10.4 0.00 0.00 0.00 76 1007.1
20260505220835 83 175 5.2 12.2 0.00 0.00 0.00 76 1007.1
20260505220359 83 175 6.1 12.2 0.00 0.00 0.00 76 1007.5
20260505215841 83 190 6.1 12.2 0.00 0.00 0.00 76 1007.5
20260505215325 83 189 5.2 12.2 0.00 0.00 0.00 77 1007.5
20260505214831 83 229 6.1 12.2 0.00 0.00 0.00 76 1007.6
20260505214336 84 186 7.0 12.2 0.00 0.00 0.00 76 1007.6
20260505213841 84 186 3.5 12.2 0.00 0.00 0.00 77 1007.6
20260505213325 83 172 3.5 10.4 0.00 0.00 0.00 77 1007.6
20260505212829 83 217 5.2 11.3 0.00 0.00 0.00 76 1007.6
20260505212334 84 198 3.5 12.2 0.00 0.00 0.00 76 1007.6
20260505211840 84 201 6.1 13.9 0.00 0.00 0.00 76 1007.9
20260505211346 84 198 7.0 13.9 0.00 0.00 0.00 76 1007.9
20260505210834 84 170 5.2 12.2 0.00 0.00 0.00 76 1007.9
20260505210323 84 144 7.0 10.4 0.00 0.00 0.00 76 1008.0
20260505205831 84 203 3.5 10.4 0.00 0.00 0.00 76 1008.0
20260505205334 83 220 3.5 11.3 0.00 0.00 0.00 77 1008.0
20260505204821 84 170 7.0 11.3 0.00 0.00 0.00 76 1008.1
20260505204329 84 120 4.3 10.4 0.00 0.00 0.00 76 1008.1
20260505203836 84 205 7.8 10.4 0.00 0.00 0.00 75 1008.1
20260505203343 85 190 5.2 10.4 0.00 0.00 0.00 74 1008.5
20260505202830 85 168 3.5 10.4 0.00 0.00 0.00 75 1008.5
20260505202338 85 175 6.1 10.4 0.00 0.00 0.00 74 1008.5
20260505201826 84 214 3.5 8.7 0.00 0.00 0.00 76 1008.7
20260505201334 84 195 5.2 10.4 0.00 0.00 0.00 75 1008.7
20260505200825 84 194 6.1 10.4 0.00 0.00 0.00 75 1008.7
20260505200330 84 198 3.5 11.3 0.00 0.00 0.00 75 1008.9
20260505195853 84 192 2.6 11.3 0.00 0.00 0.00 76 1008.9
20260505195336 84 215 6.1 11.3 0.00 0.00 0.00 75 1008.9
20260505194822 83 159 4.3 11.3 0.00 0.00 0.00 75 1009.1
20260505194327 83 170 7.0 10.4 0.00 0.00 0.00 76 1009.1
20260505193852 83 189 5.2 10.4 0.00 0.00 0.00 77 1009.1
20260505193336 83 175 5.2 10.4 0.00 0.00 0.00 77 1009.1
20260505192900 83 207 4.3 10.4 0.00 0.00 0.00 77 1009.1
20260505192403 83 154 4.3 10.4 0.00 0.00 0.00 77 1009.1
20260505191827 83 161 3.5 10.4 0.00 0.00 0.00 78 1009.1
20260505191334 83 127 4.3 9.6 0.00 0.00 0.00 77 1009.1
20260505190837 83 201 5.2 13.9 0.00 0.00 0.00 76 1009.1
20260505190322 84 175 4.3 13.9 0.00 0.00 0.00 74 1009.2
20260505185824 84 180 5.2 9.6 0.00 0.00 0.00 74 1009.2
20260505185330 84 260 5.2 13.9 0.00 0.00 0.00 76 1009.2
20260505184854 83 200 7.8 13.9 0.00 0.00 0.00 76 1009.4
20260505184340 83 215 5.2 12.2 0.00 0.00 0.00 76 1009.4
20260505183824 82 218 5.2 13.0 0.00 0.00 0.00 77 1009.4
20260505183330 82 171 3.5 13.0 0.00 0.00 0.00 78 1009.5
20260505182836 82 127 5.2 12.2 0.00 0.00 0.00 78 1009.5
20260505182340 82 200 4.3 12.2 0.00 0.00 0.00 79 1009.5
20260505181826 82 176 6.1 13.9 0.00 0.00 0.00 78 1009.6
20260505181331 82 184 6.1 13.9 0.00 0.00 0.00 79 1009.6
20260505180836 82 137 3.5 14.8 0.00 0.00 0.00 80 1009.6
20260505180401 81 156 7.8 14.8 0.00 0.00 0.00 80 1009.7
20260505175824 80 191 5.2 10.4 0.00 0.00 0.00 82 1009.7
20260505175348 80 144 4.3 10.4 0.00 0.00 0.00 81 1009.7
20260505174856 81 184 6.1 10.4 0.00 0.00 0.00 80 1009.8
20260505174344 81 189 3.5 8.7 0.00 0.00 0.00 80 1009.8
20260505173827 81 208 2.6 10.4 0.00 0.00 0.00 80 1009.8
20260505173331 80 170 4.3 10.4 0.00 0.00 0.00 80 1009.9
20260505172835 80 192 4.3 9.6 0.00 0.00 0.00 81 1009.9
20260505172401 80 206 3.5 8.7 0.00 0.00 0.00 81 1009.9
20260505171825 80 250 4.3 8.7 0.00 0.00 0.00 81 1010.1
20260505171330 80 168 5.2 10.4 0.00 0.00 0.00 81 1010.1
20260505170837 80 111 5.2 10.4 0.00 0.00 0.00 82 1010.1
20260505170325 80 169 7.0 10.4 0.00 0.00 0.00 82 1010.2
20260505165829 79 189 5.2 9.6 0.00 0.00 0.00 84 1010.2
20260505165335 78 177 2.6 9.6 0.00 0.00 0.00 86 1010.2
20260505164841 78 174 2.6 10.4 0.00 0.00 0.00 88 1010.1
20260505164330 77 196 4.3 7.8 0.00 0.00 0.00 87 1010.1
20260505163854 78 166 4.3 8.7 0.00 0.00 0.00 87 1010.1
20260505163336 78 148 5.2 8.7 0.00 0.00 0.00 85 1009.9
20260505162841 79 199 3.5 9.6 0.00 0.00 0.00 85 1009.9
20260505162325 79 174 4.3 10.4 0.00 0.00 0.00 85 1009.9
20260505161832 78 217 2.6 10.4 0.00 0.00 0.00 85 1009.9
20260505161337 78 194 5.2 9.6 0.00 0.00 0.00 85 1009.9
20260505160901 78 168 4.3 11.3 0.00 0.00 0.00 85 1009.9
20260505160324 78 180 2.6 11.3 0.00 0.00 0.00 85 1009.8
20260505153336 77 153 5.2 12.2 0.00 0.00 0.00 87 1009.6
20260505152822 77 146 3.5 11.3 0.00 0.00 0.00 87 1009.6
20260505152348 77 170 7.0 11.3 0.00 0.00 0.00 87 1009.6
20260505151851 77 189 4.3 11.3 0.00 0.00 0.00 87 1009.6
20260505151354 77 168 4.3 12.2 0.00 0.00 0.00 87 1009.6
20260505150837 77 182 5.2 12.2 0.00 0.00 0.00 87 1009.6
20260505150324 77 131 6.1 9.6 0.00 0.00 0.00 86 1009.6
20260505140333 76 203 5.2 13.0 0.00 0.00 0.00 88 1009.6
20260505124837 73 186 5.2 9.6 0.00 0.00 0.00 91 1009.1
20260505124323 73 186 3.5 8.7 0.00 0.00 0.00 91 1009.1
20260505123829 73 161 3.5 6.1 0.00 0.00 0.00 92 1009.1
20260505123334 73 153 2.6 6.1 0.00 0.00 0.00 92 1009.1
20260505122900 73 153 3.5 7.8 0.00 0.00 0.00 92 1009.1
20260505122323 72 149 3.5 7.8 0.00 0.00 0.00 92 1009.1
20260505121850 72 161 1.7 5.2 0.00 0.00 0.00 92 1008.8
20260505121333 72 174 3.5 6.1 0.00 0.00 0.00 92 1008.8
20260505120901 72 179 2.6 9.6 0.00 0.00 0.00 92 1008.8
20260505120326 72 154 3.5 9.6 0.00 0.00 0.00 92 1008.6
20260505115853 72 183 5.2 8.7 0.00 0.00 0.00 92 1008.6
20260505115341 72 184 2.6 5.2 0.00 0.00 0.00 92 1008.6
20260505114825 72 149 2.6 6.1 0.00 0.00 0.00 92 1009.0
20260505114331 72 140 2.6 6.1 0.00 0.00 0.00 92 1009.0
20260505113857 72 172 2.6 4.3 0.00 0.00 0.00 92 1009.0
20260505113455 72 156 3.5 4.3 0.00 0.00 0.00 92 1009.0
20260505112845 72 175 2.6 4.3 0.00 0.00 0.00 92 1008.9
20260505112353 71 175 1.7 4.3 0.00 0.00 0.00 92 1008.9
20260505111836 71 184 2.6 4.3 0.00 0.00 0.00 92 1008.7
20260505111322 71 127 1.7 4.3 0.00 0.00 0.00 92 1008.7
20260505110827 71 177 1.7 5.2 0.00 0.00 0.00 92 1008.7
20260505110352 71 182 3.5 6.1 0.00 0.00 0.00 92 1008.6
20260505101840 71 165 1.7 4.3 0.00 0.00 0.00 92 1008.9
20260505101345 71 179 1.7 4.3 0.00 0.00 0.00 92 1008.9
20260505100832 71 179 1.7 4.3 0.00 0.00 0.00 91 1008.9
20260505100337 71 161 1.7 4.3 0.00 0.00 0.00 91 1009.1
20260505095902 71 165 2.6 5.2 0.00 0.00 0.00 91 1009.1
20260505095324 71 163 3.5 5.2 0.00 0.00 0.00 91 1009.1
20260505094827 71 190 1.7 5.2 0.00 0.00 0.00 91 1008.9
20260505094351 71 123 1.7 6.1 0.00 0.00 0.00 91 1008.9
20260505093836 71 153 2.6 6.1 0.00 0.00 0.00 91 1008.9
20260505093321 71 189 2.6 6.1 0.00 0.00 0.00 91 1009.1
20260505092849 71 168 2.6 7.8 0.00 0.00 0.00 91 1009.1
20260505092338 71 177 4.3 7.8 0.00 0.00 0.00 91 1009.1
20260505091824 71 170 2.6 5.2 0.00 0.00 0.00 90 1009.1
20260505091329 71 151 2.6 6.1 0.00 0.00 0.00 90 1009.1
20260505090834 71 191 3.5 6.1 0.00 0.00 0.00 90 1009.1
20260505090322 71 178 2.6 3.5 0.00 0.00 0.00 90 1009.1
20260505085823 71 174 1.7 4.3 0.00 0.00 0.00 90 1009.1
20260505085328 71 132 2.6 5.2 0.00 0.00 0.00 90 1009.1
20260505084835 71 186 2.6 5.2 0.00 0.00 0.00 90 1009.1
20260505084341 71 176 2.6 4.3 0.00 0.00 0.00 90 1009.1
20260505083823 71 184 1.7 4.3 0.00 0.00 0.00 90 1009.1
20260505083327 71 160 1.7 3.5 0.00 0.00 0.00 90 1009.5
20260505082834 71 175 1.7 4.3 0.00 0.00 0.00 89 1009.5
20260505082341 71 198 0.9 5.2 0.00 0.00 0.00 89 1009.5
20260505081830 71 190 2.6 6.1 0.00 0.00 0.00 89 1009.6
20260505081356 71 183 2.6 8.7 0.00 0.00 0.00 89 1009.6
20260505080821 71 175 2.6 8.7 0.00 0.00 0.00 89 1009.6
20260505080328 71 190 2.6 6.1 0.00 0.00 0.00 89 1009.7
20260505075833 71 175 3.5 6.1 0.00 0.00 0.00 89 1009.7
20260505075358 71 189 2.6 5.2 0.00 0.00 0.00 88 1009.7
20260505074822 72 178 2.6 6.1 0.00 0.00 0.00 88 1009.7
20260505074328 72 182 1.7 6.1 0.00 0.00 0.00 88 1009.7
20260505073836 72 172 3.5 7.8 0.00 0.00 0.00 88 1009.7
20260505073321 72 138 3.5 7.8 0.00 0.00 0.00 88 1009.7
20260505072828 72 190 2.6 5.2 0.00 0.00 0.00 88 1009.7
20260505072334 72 193 2.6 5.2 0.00 0.00 0.00 87 1009.7
20260505071823 72 188 2.6 7.8 0.00 0.00 0.00 87 1010.1
20260505071331 72 179 2.6 7.0 0.00 0.00 0.00 87 1010.1
20260505070836 72 184 2.6 7.8 0.00 0.00 0.00 87 1010.1
20260505070402 72 125 4.3 7.8 0.00 0.00 0.00 87 1010.1
20260505065824 72 150 1.7 7.8 0.00 0.00 0.00 87 1010.1
20260505065329 72 151 3.5 7.8 0.00 0.00 0.00 87 1010.1
20260505064834 71 182 3.5 7.8 0.00 0.00 0.00 87 1010.2
20260505064339 71 191 3.5 7.8 0.00 0.00 0.00 86 1010.2
20260505063823 71 198 4.3 7.8 0.00 0.00 0.00 86 1010.2
20260505063328 71 194 3.5 6.1 0.00 0.00 0.00 86 1010.5
20260505062835 71 175 4.3 6.1 0.00 0.00 0.00 86 1010.5
20260505062338 71 158 3.5 6.1 0.00 0.00 0.00 86 1010.5
20260505061824 71 187 3.5 6.1 0.00 0.00 0.00 86 1010.7
20260505061329 71 155 2.6 6.1 0.00 0.00 0.00 85 1010.7
20260505060834 72 162 3.5 6.1 0.00 0.00 0.00 85 1010.7
20260505060323 72 160 2.6 6.1 0.00 0.00 0.00 85 1010.7
20260505055827 72 177 2.6 8.7 0.00 0.00 0.00 85 1010.7
20260505055333 72 185 5.2 8.7 0.00 0.00 0.00 85 1010.7
20260505054859 72 186 3.5 9.6 0.00 0.00 0.00 85 1010.7
20260505054323 72 163 3.5 9.6 0.00 0.00 0.00 85 1010.7
20260505053831 72 160 2.6 8.7 0.00 0.00 0.00 85 1010.7
20260505053336 72 159 3.5 6.1 0.00 0.00 0.00 84 1011.0
20260505052841 72 151 3.5 6.1 0.00 0.00 0.00 84 1011.0
20260505052327 72 184 4.3 6.1 0.00 0.00 0.00 84 1011.0
20260505051832 72 186 2.6 5.2 0.00 0.00 0.00 84 1011.1
20260505051359 72 183 2.6 8.7 0.00 0.00 0.00 84 1011.1
20260505050823 72 185 5.2 8.7 0.00 0.00 0.00 83 1011.1
20260505050337 72 170 4.3 7.8 0.00 0.00 0.00 83 1011.2
20260505041327 73 209 5.2 9.6 0.00 0.00 0.00 81 1011.0
20260505040852 73 148 4.3 10.4 0.00 0.00 0.00 81 1011.0
20260505040341 73 198 4.3 13.0 0.00 0.00 0.00 81 1011.2
20260505035846 73 184 4.3 13.0 0.00 0.00 0.00 81 1011.2
20260505035329 73 176 6.1 10.4 0.00 0.00 0.00 81 1011.2
20260505034857 73 143 4.3 11.3 0.00 0.00 0.00 80 1011.5
20260505034341 73 154 5.2 11.3 0.00 0.00 0.00 80 1011.5
20260505033826 73 165 6.1 13.0 0.00 0.00 0.00 80 1011.5
20260505033352 73 176 7.0 13.0 0.00 0.00 0.00 80 1011.4
20260505032856 73 193 4.3 13.0 0.00 0.00 0.00 80 1011.4
20260505032341 73 180 6.1 13.0 0.00 0.00 0.00 79 1011.4
20260505031825 74 173 4.3 10.4 0.00 0.00 0.00 79 1011.2
20260505031330 74 188 7.0 10.4 0.00 0.00 0.00 79 1011.2
20260505030837 74 201 7.0 13.9 0.00 0.00 0.00 79 1011.2
20260505030322 74 201 8.7 13.9 0.00 0.00 0.00 79 1011.2
20260505025826 74 146 6.1 14.8 0.00 0.00 0.00 78 1011.2
20260505025337 74 125 7.0 14.8 0.00 0.00 0.00 78 1011.2
20260505024823 74 132 4.3 11.3 0.00 0.00 0.00 78 1011.3
20260505024328 74 151 6.1 11.3 0.00 0.00 0.00 78 1011.3
20260505023833 74 141 6.1 11.3 0.00 0.00 0.00 77 1011.3
20260505023338 74 153 4.3 11.3 0.00 0.00 0.00 77 1011.2
20260505022824 74 175 4.3 13.9 0.00 0.00 0.00 77 1011.2
20260505022329 74 196 7.8 12.2 0.00 0.00 0.00 77 1011.2
20260505021833 75 159 5.2 10.4 0.00 0.00 0.00 77 1011.2
20260505021338 75 134 5.2 10.4 0.00 0.00 0.00 76 1011.2
20260505020822 75 201 7.0 12.2 0.00 0.00 0.00 76 1011.2
20260505020327 75 191 6.1 14.8 0.00 0.00 0.00 76 1011.1
20260505015835 75 147 7.0 14.8 0.00 0.00 0.00 76 1011.1
20260505015321 75 202 7.0 13.0 0.00 0.00 0.00 75 1011.1
20260505014826 75 208 7.0 13.0 0.00 0.00 0.00 75 1010.8
20260505014334 75 155 3.5 10.4 0.00 0.00 0.00 75 1010.8
20260505013821 75 135 5.2 11.3 0.00 0.00 0.00 75 1010.8
20260505013329 76 200 6.1 11.3 0.00 0.00 0.00 75 1010.7
20260505012855 76 185 4.3 11.3 0.00 0.00 0.00 74 1010.7